Time,TemperatureF,DewpointF,PressureIn,WindDirection,WindDirectionDegrees,WindSpeedMPH,WindSpeedGustMPH,Humidity,HourlyPrecipIn,Conditions,Clouds,dailyrainin,SolarRadiationWatts/m^2,SoftwareType,DateUTC
2013-09-04 00:00:00,56.0,55.0,-100.00,SW,225,0.0,-999.0,96,-99.99,,,-99.99,0.000000,,2013-09-04 04:00:00,
2013-09-04 00:44:00,56.0,55.0,-100.00,SW,225,0.0,-999.0,96,-99.99,,,-99.99,0.000000,,2013-09-04 04:44:00,
2013-09-04 00:54:00,56.0,55.0,-100.00,SW,225,0.0,-999.0,96,-99.99,,,-99.99,0.000000,,2013-09-04 04:54:00,
2013-09-04 01:00:00,55.0,54.0,-100.00,SW,225,0.0,-999.0,97,-99.99,,,-99.99,0.000000,,2013-09-04 05:00:00,
2013-09-04 01:43:00,55.0,54.0,-100.00,SW,225,0.0,-999.0,97,-99.99,,,-99.99,0.000000,,2013-09-04 05:43:00,
2013-09-04 01:53:00,55.0,54.0,-100.00,SW,225,0.0,-999.0,97,-99.99,,,-99.99,0.000000,,2013-09-04 05:53:00,
2013-09-04 02:00:00,54.0,54.0,-100.00,SW,225,0.0,-999.0,98,-99.99,,,-99.99,0.000000,,2013-09-04 06:00:00,
2013-09-04 02:42:00,54.0,54.0,-100.00,SW,225,0.0,-999.0,98,-99.99,,,-99.99,0.000000,,2013-09-04 06:42:00,
2013-09-04 02:52:00,54.0,54.0,-100.00,SW,225,0.0,-999.0,98,-99.99,,,-99.99,0.000000,,2013-09-04 06:52:00,
2013-09-04 03:00:00,54.0,53.0,-100.00,WSW,247,0.0,-999.0,98,-99.99,,,-99.99,0.000000,,2013-09-04 07:00:00,
2013-09-04 03:42:00,54.0,53.0,-100.00,WSW,247,0.0,-999.0,98,-99.99,,,-99.99,0.000000,,2013-09-04 07:42:00,
2013-09-04 03:52:00,54.0,53.0,-100.00,WSW,247,0.0,-999.0,98,-99.99,,,-99.99,0.000000,,2013-09-04 07:52:00,
2013-09-04 04:00:00,53.0,53.0,-100.00,SW,225,0.0,-999.0,99,-99.99,,,-99.99,0.000000,,2013-09-04 08:00:00,
2013-09-04 04:43:00,53.0,53.0,-100.00,SW,225,0.0,-999.0,99,-99.99,,,-99.99,0.000000,,2013-09-04 08:43:00,
2013-09-04 04:52:00,53.0,53.0,-100.00,SW,225,0.0,-999.0,99,-99.99,,,-99.99,0.000000,,2013-09-04 08:52:00,
2013-09-04 05:00:00,52.0,52.0,-100.00,SW,225,0.0,-999.0,99,-99.99,,,-99.99,0.000000,,2013-09-04 09:00:00,
2013-09-04 05:43:00,52.0,52.0,-100.00,SW,225,0.0,-999.0,99,-99.99,,,-99.99,0.000000,,2013-09-04 09:43:00,
2013-09-04 05:53:00,52.0,52.0,-100.00,SW,225,0.0,-999.0,99,-99.99,,,-99.99,0.000000,,2013-09-04 09:53:00,
2013-09-04 06:00:00,52.0,52.0,-100.00,SW,225,0.0,-999.0,99,-99.99,,,-99.99,0.000000,,2013-09-04 10:00:00,
2013-09-04 06:42:00,52.0,52.0,-100.00,SW,225,0.0,-999.0,99,-99.99,,,-99.99,0.000000,,2013-09-04 10:42:00,
2013-09-04 06:52:00,52.0,52.0,-100.00,SW,225,0.0,-999.0,99,-99.99,,,-99.99,0.000000,,2013-09-04 10:52:00,
2013-09-04 07:00:00,52.0,52.0,-100.00,SW,225,1.0,-999.0,99,-99.99,,,-99.99,0.000000,,2013-09-04 11:00:00,
2013-09-04 07:42:00,52.0,52.0,-100.00,SW,225,1.0,-999.0,99,-99.99,,,-99.99,0.000000,,2013-09-04 11:42:00,
2013-09-04 07:52:00,52.0,52.0,-100.00,SW,225,1.0,-999.0,99,-99.99,,,-99.99,0.000000,,2013-09-04 11:52:00,
2013-09-04 08:00:00,52.0,52.0,-100.00,SW,225,1.0,-999.0,99,-99.99,,,-99.99,33.639999,,2013-09-04 12:00:00,
2013-09-04 08:42:00,52.0,52.0,-100.00,SW,225,1.0,-999.0,99,-99.99,,,-99.99,33.639999,,2013-09-04 12:42:00,
2013-09-04 08:52:00,52.0,52.0,-100.00,SW,225,1.0,-999.0,99,-99.99,,,-99.99,33.639999,,2013-09-04 12:52:00,
2013-09-04 09:00:00,57.0,56.0,-100.00,SW,225,2.0,-999.0,96,-99.99,,,-99.99,172.839996,,2013-09-04 13:00:00,
2013-09-04 09:42:00,57.0,56.0,-100.00,SW,225,2.0,-999.0,96,-99.99,,,-99.99,172.839996,,2013-09-04 13:42:00,
2013-09-04 09:52:00,57.0,56.0,-100.00,SW,225,2.0,-999.0,96,-99.99,,,-99.99,172.839996,,2013-09-04 13:52:00,
2013-09-04 10:00:00,64.0,59.0,-100.00,WSW,247,3.0,-999.0,84,-99.99,,,-99.99,320.160004,,2013-09-04 14:00:00,
2013-09-04 10:42:00,64.0,59.0,-100.00,WSW,247,3.0,-999.0,84,-99.99,,,-99.99,320.160004,,2013-09-04 14:42:00,
2013-09-04 10:52:00,64.0,59.0,-100.00,WSW,247,3.0,-999.0,84,-99.99,,,-99.99,320.160004,,2013-09-04 14:52:00,
2013-09-04 11:00:00,70.0,61.0,-100.00,WSW,247,3.0,-999.0,72,-99.99,,,-99.99,466.320007,,2013-09-04 15:00:00,
2013-09-04 11:44:00,70.0,61.0,-100.00,WSW,247,3.0,-999.0,72,-99.99,,,-99.99,466.320007,,2013-09-04 15:44:00,
2013-09-04 11:53:00,70.0,61.0,-100.00,WSW,247,3.0,-999.0,72,-99.99,,,-99.99,466.320007,,2013-09-04 15:53:00,
2013-09-04 12:00:00,74.0,60.0,-100.00,West,270,5.0,-999.0,60,-99.99,,,-99.99,588.119995,,2013-09-04 16:00:00,
2013-09-04 12:43:00,74.0,60.0,-100.00,West,270,5.0,-999.0,60,-99.99,,,-99.99,588.119995,,2013-09-04 16:43:00,
2013-09-04 12:53:00,74.0,60.0,-100.00,West,270,5.0,-999.0,60,-99.99,,,-99.99,588.119995,,2013-09-04 16:53:00,
2013-09-04 13:00:00,76.0,58.0,-100.00,West,270,6.0,-999.0,54,-99.99,,,-99.99,667.000000,,2013-09-04 17:00:00,
2013-09-04 13:42:00,76.0,58.0,-100.00,West,270,6.0,-999.0,54,-99.99,,,-99.99,667.000000,,2013-09-04 17:42:00,
2013-09-04 13:53:00,76.0,58.0,-100.00,West,270,6.0,-999.0,54,-99.99,,,-99.99,667.000000,,2013-09-04 17:53:00,
2013-09-04 14:00:00,78.0,58.0,-100.00,West,270,6.0,-999.0,50,-99.99,,,-99.99,696.000000,,2013-09-04 18:00:00,
2013-09-04 14:42:00,78.0,58.0,-100.00,West,270,6.0,-999.0,50,-99.99,,,-99.99,696.000000,,2013-09-04 18:42:00,
2013-09-04 14:52:00,78.0,58.0,-100.00,West,270,6.0,-999.0,50,-99.99,,,-99.99,696.000000,,2013-09-04 18:52:00,
2013-09-04 15:00:00,79.0,57.0,-100.00,West,270,7.0,-999.0,46,-99.99,,,-99.99,680.919983,,2013-09-04 19:00:00,
2013-09-04 15:42:00,79.0,57.0,-100.00,West,270,7.0,-999.0,46,-99.99,,,-99.99,680.919983,,2013-09-04 19:42:00,
2013-09-04 15:53:00,79.0,57.0,-100.00,West,270,7.0,-999.0,46,-99.99,,,-99.99,680.919983,,2013-09-04 19:53:00,
2013-09-04 16:00:00,80.0,56.0,-100.00,WNW,292,6.0,-999.0,43,-99.99,,,-99.99,578.840027,,2013-09-04 20:00:00,
2013-09-04 16:43:00,80.0,56.0,-100.00,WNW,292,6.0,-999.0,43,-99.99,,,-99.99,578.840027,,2013-09-04 20:43:00,
2013-09-04 16:53:00,80.0,56.0,-100.00,WNW,292,6.0,-999.0,43,-99.99,,,-99.99,578.840027,,2013-09-04 20:53:00,
2013-09-04 17:00:00,79.0,55.0,-100.00,West,270,5.0,-999.0,43,-99.99,,,-99.99,436.160004,,2013-09-04 21:00:00,
2013-09-04 17:44:00,79.0,55.0,-100.00,West,270,5.0,-999.0,43,-99.99,,,-99.99,436.160004,,2013-09-04 21:44:00,
2013-09-04 17:54:00,79.0,55.0,-100.00,West,270,5.0,-999.0,43,-99.99,,,-99.99,436.160004,,2013-09-04 21:54:00,
2013-09-04 18:00:00,77.0,55.0,-100.00,West,270,6.0,-999.0,46,-99.99,,,-99.99,307.399994,,2013-09-04 22:00:00,
2013-09-04 18:43:00,77.0,55.0,-100.00,West,270,6.0,-999.0,46,-99.99,,,-99.99,307.399994,,2013-09-04 22:43:00,
2013-09-04 18:55:00,77.0,55.0,-100.00,West,270,6.0,-999.0,46,-99.99,,,-99.99,307.399994,,2013-09-04 22:55:00,
2013-09-04 19:00:00,76.0,56.0,-100.00,WNW,292,5.0,-999.0,49,-99.99,,,-99.99,124.120003,,2013-09-04 23:00:00,
2013-09-04 19:42:00,76.0,56.0,-100.00,WNW,292,5.0,-999.0,49,-99.99,,,-99.99,124.120003,,2013-09-04 23:42:00,
2013-09-04 19:52:00,76.0,56.0,-100.00,WNW,292,5.0,-999.0,49,-99.99,,,-99.99,124.120003,,2013-09-04 23:52:00,
2013-09-04 20:00:00,74.0,56.0,-100.00,West,270,3.0,-999.0,52,-99.99,,,-99.99,34.799999,,2013-09-05 00:00:00,
2013-09-04 20:43:00,74.0,56.0,-100.00,West,270,3.0,-999.0,52,-99.99,,,-99.99,34.799999,,2013-09-05 00:43:00,
2013-09-04 20:52:00,74.0,56.0,-100.00,West,270,3.0,-999.0,52,-99.99,,,-99.99,34.799999,,2013-09-05 00:52:00,
2013-09-04 21:00:00,68.0,56.0,-100.00,SW,225,0.0,-999.0,65,-99.99,,,-99.99,1.160000,,2013-09-05 01:00:00,
2013-09-04 21:42:00,68.0,56.0,-100.00,SW,225,0.0,-999.0,65,-99.99,,,-99.99,1.160000,,2013-09-05 01:42:00,
2013-09-04 21:52:00,68.0,56.0,-100.00,SW,225,0.0,-999.0,65,-99.99,,,-99.99,1.160000,,2013-09-05 01:52:00,
2013-09-04 22:00:00,63.0,57.0,-100.00,South,180,1.0,-999.0,80,0.14,,,-99.99,0.000000,,2013-09-05 02:00:00,
2013-09-04 22:52:00,63.0,57.0,-100.00,South,180,1.0,-999.0,80,0.14,,,-99.99,0.000000,,2013-09-05 02:52:00,
2013-09-04 23:00:00,60.0,57.0,-100.00,SSE,157,0.0,-999.0,89,0.14,,,-99.99,0.000000,,2013-09-05 03:00:00,
2013-09-04 23:45:00,60.0,57.0,-100.00,SSE,157,0.0,-999.0,89,0.14,,,-99.99,0.000000,,2013-09-05 03:45:00,
2013-09-04 23:54:00,60.0,57.0,-100.00,SSE,157,0.0,-999.0,89,0.14,,,-99.99,0.000000,,2013-09-05 03:54:00,